This is the latest recevied weather packets stored in our database for station/object N8TWM-13. If no packets are shown the sender has not sent any weather packets the latest 10 day(s).
| Time | Temp. | Humidity | Pressure | Rain* | Wind** | Luminosity | Snow |
|---|---|---|---|---|---|---|---|
| 1787788824 | 23.33° C | 73% | 1014.8 hPa | 0 mm | - | 2 W/m² | - |
| 1787788519 | 23.33° C | 72% | 1014.6 hPa | 0 mm | - | 2 W/m² | - |
| 1787788219 | 23.89° C | 72% | 1014.7 hPa | 0 mm | - | 5 W/m² | - |
| 1787787914 | 23.89° C | 71% | 1014.7 hPa | 0 mm | - | 8 W/m² | - |
| 1787787609 | 23.89° C | 71% | 1014.6 hPa | 0 mm | - | 16 W/m² | - |
| 1787787303 | 23.89° C | 71% | 1014.5 hPa | 0 mm | - | 24 W/m² | - |
| 1787787002 | 23.89° C | 71% | 1014.4 hPa | 0 mm | - | 32 W/m² | - |
| 1787786697 | 23.89° C | 70% | 1014.2 hPa | 0 mm | - | 39 W/m² | - |
| 1787786396 | 24.44° C | 70% | 1014.4 hPa | 0 mm | - | 44 W/m² | - |
| 1787786093 | 24.44° C | 69% | 1014.4 hPa | 0 mm | - | 46 W/m² | - |
| 1787785788 | 24.44° C | 69% | 1014.5 hPa | 0 mm | - | 43 W/m² | - |
| 1787785484 | 24.44° C | 67% | 1014.3 hPa | 0 mm | - | 37 W/m² | - |
| 1787785183 | 24.44° C | 67% | 1014.4 hPa | 0 mm | - | 36 W/m² | - |
| 1787784878 | 25° C | 66% | 1014.3 hPa | 0 mm | - | 37 W/m² | - |
| 1787784577 | 25° C | 66% | 1014.8 hPa | 0 mm | - | 46 W/m² | - |
| 1787784276 | 25° C | 66% | 1015.3 hPa | 0 mm | - | 61 W/m² | - |
| 1787783971 | 25.56° C | 64% | 1015.2 hPa | 0 mm | - | 75 W/m² | - |
| 1787783667 | 26.11° C | 63% | 1015.5 hPa | 0 mm | - | 102 W/m² | - |
| 1787783367 | 25.56° C | 65% | 1015 hPa | 0 mm | - | 136 W/m² | - |
| 1787783063 | 25.56° C | 63% | 1015.6 hPa | 0 mm | - | 151 W/m² | - |
| 1787782762 | 25.56° C | 63% | 1015.4 hPa | 0 mm | - | 172 W/m² | - |
| 1787782458 | 26.11° C | 62% | 1015.7 hPa | 0 mm | - | 77 W/m² | - |
| 1787782158 | 26.11° C | 63% | 1015.6 hPa | 0 mm | - | 180 W/m² | - |
| 1787781853 | 26.11° C | 61% | 1015.5 hPa | 0 mm | - | 186 W/m² | - |
| 1787781552 | 25.56° C | 61% | 1015.2 hPa | 0 mm | - | 204 W/m² | - |
* Rain latest hour (hover to see other rain measurements)
** Current wind speed in m/s (hover to see current wind gust speed)